When you browse on this site, cookies collect data to enhance your experience and personalize the content and advertising you see.
Visit our Privacy Policy to learn more. By continuing to use the site, you agree to this use of cookies and data.
  • In Hungary
  • List of Countries
  • For 7 days
  • Water Temperature
  • Weather Map
  • News
  • Weather Widgets
  • user-avatar
    Login

    Hourly Weather Mafeteng

    Today, 10 December, Tuesday

    Time Temperature Precipitation Wind Pressure Humidity
    00:00 +15°C° 1.8 mm 2 mps 624 mmHg 87%
    01:00 +15°C° 1.8 mm 2 mps 624 mmHg 86%
    02:00 +15°C° 1.8 mm 2 mps 624 mmHg 86%
    03:00 +13°C° 0.9 mm 3 mps 624 mmHg 86%
    04:00 +13°C° 0.9 mm 4 mps 623 mmHg 86%
    05:00 +13°C° 0.9 mm 4 mps 623 mmHg 86%
    06:00 +14°C° 0.3 mm 4 mps 624 mmHg 84%
    07:00 +14°C° 0.3 mm 3 mps 624 mmHg 81%
    08:00 +16°C° 0.3 mm 3 mps 625 mmHg 79%
    09:00 +16°C° 0.7 mm 3 mps 625 mmHg 78%
    10:00 +17°C° 0.7 mm 4 mps 625 mmHg 78%
    11:00 +16°C° 0.7 mm 5 mps 625 mmHg 78%
    12:00 +16°C° 1.1 mm 5 mps 624 mmHg 78%
    13:00 +16°C° 1.1 mm 6 mps 624 mmHg 79%
    14:00 +16°C° 1.1 mm 6 mps 624 mmHg 79%
    15:00 +16°C° 0.3 mm 6 mps 623 mmHg 77%
    16:00 +16°C° 0.3 mm 6 mps 623 mmHg 75%
    17:00 +16°C° 0.3 mm 6 mps 623 mmHg 72%
    18:00 +16°C° 0.2 mm 5 mps 623 mmHg 75%
    19:00 +15°C° 0.2 mm 4 mps 623 mmHg 77%
    20:00 +14°C° 0.2 mm 3 mps 623 mmHg 79%
    21:00 +14°C° 0.1 mm 3 mps 623 mmHg 79%
    22:00 +15°C° 0.1 mm 2 mps 624 mmHg 79%
    23:00 +14°C° 0.1 mm 2 mps 624 mmHg 80%

    Tomorrow, 11 December, Wednesday

    Time Temperature Precipitation Wind Pressure Humidity
    00:00 +14°C° 0.1 mm 2 mps 623 mmHg 82%
    01:00 +14°C° 0.1 mm 2 mps 623 mmHg 84%
    02:00 +13°C° 0.1 mm 2 mps 622 mmHg 87%
    03:00 +13°C° 0 mm 1 mps 622 mmHg 86%
    04:00 +13°C° 0 mm 1 mps 622 mmHg 86%
    05:00 +13°C° 0 mm 1 mps 622 mmHg 85%
    06:00 +15°C° 0 mm 1 mps 623 mmHg 79%
    07:00 +16°C° 0 mm 1 mps 624 mmHg 72%
    08:00 +18°C° 0 mm 1 mps 624 mmHg 66%
    09:00 +19°C° 0 mm 1 mps 625 mmHg 60%
    10:00 +21°C° 0 mm 1 mps 625 mmHg 54%
    11:00 +22°C° 0 mm 1 mps 625 mmHg 49%
    12:00 +23°C° 0 mm 2 mps 625 mmHg 47%
    13:00 +24°C° 0 mm 2 mps 625 mmHg 44%
    14:00 +24°C° 0 mm 3 mps 624 mmHg 42%
    15:00 +25°C° 0 mm 3 mps 624 mmHg 40%
    16:00 +25°C° 0 mm 3 mps 625 mmHg 37%
    17:00 +25°C° 0 mm 4 mps 625 mmHg 35%
    18:00 +24°C° 0 mm 3 mps 625 mmHg 37%
    19:00 +23°C° 0 mm 2 mps 625 mmHg 40%
    20:00 +21°C° 0 mm 1 mps 625 mmHg 43%
    21:00 +21°C° 0 mm 1 mps 625 mmHg 45%
    22:00 +20°C° 0 mm 1 mps 625 mmHg 48%
    23:00 +19°C° 0 mm 1 mps 625 mmHg 51%

    Day after tomorrow, 12 December, Thursday

    Time Temperature Precipitation Wind Pressure Humidity
    00:00 +18°C° 0 mm 1 mps 625 mmHg 53%
    01:00 +18°C° 0 mm 1 mps 624 mmHg 56%
    02:00 +16°C° 0 mm 1 mps 624 mmHg 58%
    03:00 +16°C° 0 mm 1 mps 624 mmHg 61%
    04:00 +15°C° 0 mm 1 mps 624 mmHg 64%
    05:00 +15°C° 0 mm 1 mps 624 mmHg 66%
    06:00 +18°C° 0 mm 1 mps 625 mmHg 61%
    07:00 +19°C° 0 mm 2 mps 626 mmHg 55%
    08:00 +21°C° 0 mm 2 mps 627 mmHg 49%
    09:00 +22°C° 0 mm 3 mps 627 mmHg 44%
    10:00 +24°C° 0 mm 3 mps 627 mmHg 39%
    11:00 +26°C° 0 mm 3 mps 627 mmHg 34%
    12:00 +26°C° 0 mm 3 mps 627 mmHg 32%
    13:00 +27°C° 0 mm 3 mps 626 mmHg 30%
    14:00 +27°C° 0 mm 4 mps 626 mmHg 28%
    15:00 +26°C° 0 mm 4 mps 626 mmHg 30%
    16:00 +25°C° 0 mm 4 mps 625 mmHg 32%
    17:00 +25°C° 0 mm 4 mps 625 mmHg 35%
    18:00 +22°C° 0.1 mm 4 mps 625 mmHg 41%
    19:00 +20°C° 0.1 mm 4 mps 625 mmHg 48%
    20:00 +18°C° 0.1 mm 4 mps 624 mmHg 55%
    21:00 +18°C° 0 mm 3 mps 625 mmHg 57%
    22:00 +17°C° 0 mm 2 mps 625 mmHg 58%
    23:00 +18°C° 0 mm 1 mps 625 mmHg 60%

    13 December, Friday

    Time Temperature Precipitation Wind Pressure Humidity
    00:00 +18°C° 0.1 mm 1 mps 625 mmHg 62%
    01:00 +18°C° 0.1 mm 1 mps 624 mmHg 64%
    02:00 +16°C° 0.1 mm 2 mps 624 mmHg 66%
    03:00 +16°C° 0 mm 2 mps 624 mmHg 67%
    04:00 +16°C° 0 mm 2 mps 624 mmHg 68%
    05:00 +14°C° 0 mm 3 mps 624 mmHg 69%
    06:00 +16°C° 0 mm 5 mps 625 mmHg 65%
    07:00 +17°C° 0 mm 7 mps 625 mmHg 60%
    08:00 +19°C° 0 mm 9 mps 626 mmHg 55%
    09:00 +22°C° 0 mm 9 mps 626 mmHg 50%
    10:00 +24°C° 0 mm 9 mps 626 mmHg 45%
    11:00 +27°C° 0 mm 10 mps 627 mmHg 40%
    12:00 +28°C° 0 mm 9 mps 626 mmHg 35%
    13:00 +28°C° 0 mm 9 mps 626 mmHg 29%
    14:00 +29°C° 0 mm 8 mps 626 mmHg 23%
    15:00 +29°C° 0 mm 8 mps 625 mmHg 21%
    16:00 +31°C° 0 mm 8 mps 625 mmHg 20%
    17:00 +31°C° 0 mm 8 mps 625 mmHg 18%
    18:00 +28°C° 0 mm 6 mps 625 mmHg 24%
    19:00 +25°C° 0 mm 4 mps 624 mmHg 31%
    20:00 +21°C° 0 mm 2 mps 624 mmHg 38%
    21:00 +20°C° 0 mm 2 mps 624 mmHg 43%
    22:00 +20°C° 0 mm 1 mps 624 mmHg 48%
    23:00 +19°C° 0 mm 1 mps 624 mmHg 52%

    14 December, Saturday

    Time Temperature Precipitation Wind Pressure Humidity
    00:00 +19°C° 0 mm 1 mps 624 mmHg 56%
    01:00 +19°C° 0 mm 1 mps 623 mmHg 59%
    02:00 +17°C° 0 mm 2 mps 623 mmHg 63%
    03:00 +17°C° 0 mm 2 mps 623 mmHg 66%
    04:00 +17°C° 0 mm 2 mps 623 mmHg 69%
    05:00 +16°C° 0 mm 2 mps 623 mmHg 71%
    06:00 +18°C° 0 mm 3 mps 624 mmHg 65%
    07:00 +20°C° 0 mm 4 mps 624 mmHg 59%
    08:00 +22°C° 0 mm 5 mps 625 mmHg 53%
    09:00 +24°C° 0 mm 6 mps 625 mmHg 45%
    10:00 +27°C° 0 mm 6 mps 626 mmHg 37%
    11:00 +29°C° 0 mm 6 mps 626 mmHg 29%
    12:00 +29°C° 0 mm 7 mps 626 mmHg 25%
    13:00 +31°C° 0 mm 8 mps 626 mmHg 22%
    14:00 +32°C° 0 mm 9 mps 626 mmHg 19%
    15:00 +32°C° 0 mm 9 mps 625 mmHg 19%
    16:00 +32°C° 0 mm 9 mps 625 mmHg 18%
    17:00 +32°C° 0 mm 9 mps 624 mmHg 18%
    18:00 +29°C° 0 mm 7 mps 624 mmHg 21%
    19:00 +27°C° 0 mm 6 mps 623 mmHg 24%
    20:00 +23°C° 0 mm 4 mps 623 mmHg 27%
    21:00 +23°C° 0 mm 4 mps 623 mmHg 28%
    22:00 +22°C° 0 mm 4 mps 623 mmHg 30%
    23:00 +21°C° 0 mm 4 mps 623 mmHg 31%

    15 December, Sunday

    Time Temperature Precipitation Wind Pressure Humidity
    00:00 +19°C° 0 mm 3 mps 623 mmHg 37%
    01:00 +18°C° 0 mm 3 mps 622 mmHg 44%
    02:00 +17°C° 0 mm 2 mps 622 mmHg 51%
    03:00 +16°C° 0 mm 2 mps 622 mmHg 55%
    04:00 +15°C° 0 mm 2 mps 622 mmHg 60%
    05:00 +15°C° 0 mm 2 mps 622 mmHg 64%
    06:00 +16°C° 0 mm 3 mps 623 mmHg 54%
    07:00 +17°C° 0 mm 5 mps 623 mmHg 43%
    08:00 +18°C° 0 mm 7 mps 624 mmHg 33%
    09:00 +21°C° 0 mm 8 mps 625 mmHg 27%
    10:00 +22°C° 0 mm 9 mps 625 mmHg 22%
    11:00 +23°C° 0 mm 10 mps 625 mmHg 17%
    12:00 +24°C° 0 mm 10 mps 625 mmHg 16%
    13:00 +24°C° 0 mm 9 mps 625 mmHg 16%
    14:00 +26°C° 0 mm 9 mps 625 mmHg 15%
    15:00 +24°C° 0 mm 9 mps 625 mmHg 16%
    16:00 +24°C° 0 mm 9 mps 625 mmHg 16%
    17:00 +23°C° 0 mm 9 mps 625 mmHg 17%
    18:00 +22°C° 0 mm 7 mps 625 mmHg 18%
    19:00 +20°C° 0 mm 5 mps 625 mmHg 20%
    20:00 +18°C° 0 mm 4 mps 624 mmHg 21%
    21:00 +17°C° 0 mm 3 mps 625 mmHg 23%
    22:00 +16°C° 0 mm 3 mps 625 mmHg 24%
    23:00 +14°C° 0 mm 2 mps 625 mmHg 26%
    Show more